Stations météo

réclame
Mon MeteoGroup
Noervenich/Flugplatz, Allemagne (10502): Température de l'air & dewpoint: 12.02.2019 18:00:00 - 18.02.2019 18:00:00 (CET)Noervenich/Flugplatz, Allemagne (10502): Vitesse du vent: 12.02.2019 18:00:00 - 18.02.2019 18:00:00 (CET)Noervenich/Flugplatz, Allemagne (10502): Direction du vent: 12.02.2019 18:00:00 - 18.02.2019 18:00:00 (CET)Noervenich/Flugplatz, Allemagne (10502): reduced air pressure: 12.02.2019 18:00:00 - 18.02.2019 18:00:00 (CET)Noervenich/Flugplatz, Allemagne (10502): visibility: 12.02.2019 18:00:00 - 18.02.2019 18:00:00 (CET)
Date & Time tt [°C] td [°C] ff [km/h] ff [knt] dd ppp [hPa] vv [km]
18.02.2019 18:00:00 11,8 0,4 11 6 SSW 1016,2 40
18.02.2019 17:00:00 13,7 0,0 18 10 SSW 1015,9 40
18.02.2019 16:00:00 14,7 -1,3 22 12 S 1015,7 40
18.02.2019 15:00:00 16,3 -2,7 22 12 S 1015,7 30
18.02.2019 14:00:00 16,1 1,3 11 6 ESE 1016,7 30
18.02.2019 13:00:00 14,3 2,7 11 6 ESE 1018,0 30
18.02.2019 12:00:00 12,4 2,8 7 4 ESE 1018,8 30
18.02.2019 11:00:00 9,9 0,9 11 6 E 1019,4 30
18.02.2019 10:00:00 8,4 0,2 11 6 SSE 1019,7 30
18.02.2019 09:00:00 1,9 -0,6 7 4 SE 1020,2 30
18.02.2019 08:00:00 1,4 -1,5 7 4 SSE 1020,2 30
18.02.2019 07:00:00 1,9 -2,5 7 4 SSE 1020,5 30
18.02.2019 06:00:00 4,8 -1,3 14 8 S 1020,3 30
18.02.2019 05:00:00 3,1 -1,4 11 6 S 1020,6 30
18.02.2019 04:00:00 3,2 -1,4 11 6 S 1020,7 30
18.02.2019 03:00:00 6,0 -1,1 11 6 S 1020,8 30
18.02.2019 02:00:00 5,7 -1,0 14 8 S 1021,1 30
18.02.2019 01:00:00 6,0 -0,4 14 8 S 1021,0 30
18.02.2019 00:00:00 5,0 -0,6 11 6 S 1021,2 30
17.02.2019 23:00:00 5,1 -0,8 11 6 S 1021,5 30
17.02.2019 22:00:00 8,1 -0,6 7 4 SE 1021,3 30
17.02.2019 21:00:00 7,0 -0,1 11 6 SSE 1021,2 30
17.02.2019 20:00:00 8,5 0,2 7 4 SSE 1021,0 30
17.02.2019 19:00:00 11,4 -0,4 14 8 S 1020,4 30
17.02.2019 18:00:00 14,1 -1,8 14 8 SSW 1019,7 30
17.02.2019 17:00:00 17,2 -3,1 7 4 S 1019,5 30
17.02.2019 16:00:00 16,9 2,5 14 8 ESE 1019,6 20
17.02.2019 15:00:00 16,5 2,3 14 8 ESE 1019,8 20
17.02.2019 14:00:00 15,5 2,8 11 6 ESE 1020,6 20
17.02.2019 13:00:00 14,1 1,7 14 8 SE 1021,4 18
17.02.2019 12:00:00 11,2 2,8 11 6 ESE 1022,2 15
17.02.2019 11:00:00 9,1 1,6 7 4 SE 1022,6 15
17.02.2019 10:00:00 5,5 1,0 11 6 SE 1023,1 15
17.02.2019 09:00:00 5,0 0,3 11 6 SSE 1023,4 15
17.02.2019 08:00:00 2,1 -0,5 11 6 S 1023,7 15
17.02.2019 07:00:00 0,8 -0,9 7 4 SSE 1023,8 20
17.02.2019 06:00:00 2,5 -0,1 11 6 S 1024,0 20
17.02.2019 05:00:00 2,6 -0,3 11 6 S 1024,3 20
17.02.2019 04:00:00 3,7 0,5 14 8 S 1024,5 20
17.02.2019 03:00:00 1,8 0,2 11 6 S 1025,2 20
17.02.2019 02:00:00 2,0 -0,3 11 6 S 1025,5 20
17.02.2019 01:00:00 4,3 0,6 11 6 SSE 1025,5 20
17.02.2019 00:00:00 6,5 0,9 14 8 S 1025,6 25
16.02.2019 23:00:00 4,9 1,2 7 4 SSE 1026,0 25
16.02.2019 22:00:00 4,3 1,8 7 4 SSE 1026,0 25
16.02.2019 21:00:00 4,0 1,4 4 2 NNW 1026,2 35
16.02.2019 20:00:00 5,9 1,1 0 0 N 1026,0 35
16.02.2019 19:00:00 8,3 0,5 0 0 N 1026,0 35
16.02.2019 18:00:00 11,2 0,8 4 2 W 1025,7 35
16.02.2019 17:00:00 14,3 0,6 4 2 N 1025,6 40
16.02.2019 16:00:00 15,4 0,1 7 4 E 1025,7 40
16.02.2019 15:00:00 15,4 0,6 7 4 E 1025,9 40
16.02.2019 14:00:00 14,5 -0,3 7 4 E 1026,2 40
16.02.2019 13:00:00 13,5 1,2 7 4 ESE 1026,7 40
16.02.2019 12:00:00 11,5 0,7 4 2 N 1027,2 40
16.02.2019 11:00:00 9,9 0,5 7 4 SSE 1027,0 40
16.02.2019 10:00:00 6,8 -0,9 7 4 SE 1027,3 40
16.02.2019 09:00:00 4,7 -1,3 11 6 SSE 1027,3 40
16.02.2019 08:00:00 3,4 -1,5 18 10 S 1026,7 40
16.02.2019 07:00:00 2,7 -1,7 14 8 S 1026,7 40
16.02.2019 06:00:00 3,1 -1,7 11 6 S 1026,8 40
16.02.2019 05:00:00 0,9 -1,8 11 6 SSE 1027,1 40
16.02.2019 04:00:00 3,0 -1,7 7 4 S 1027,3 40
16.02.2019 03:00:00 4,6 -1,5 7 4 S 1027,5 40
16.02.2019 02:00:00 5,8 -1,2 7 4 S 1027,8 40
16.02.2019 01:00:00 6,0 -1,3 7 4 S 1028,0 40
16.02.2019 00:00:00 6,5 -1,2 11 6 SSE 1028,1 40
15.02.2019 23:00:00 6,6 -1,1 11 6 S 1028,5 40
15.02.2019 22:00:00 7,8 -1,2 7 4 SSE 1028,6 40
15.02.2019 21:00:00 8,8 -1,0 7 4 SE 1028,5 40
15.02.2019 20:00:00 9,3 0,1 7 4 SSE 1028,7 30
15.02.2019 19:00:00 10,7 0,4 11 6 SE 1028,7 30
15.02.2019 18:00:00 11,8 2,1 4 2 SE 1028,7 30
15.02.2019 17:00:00 14,1 2,0 11 6 ESE 1028,8 30
15.02.2019 16:00:00 14,8 1,5 11 6 E 1029,3 30
15.02.2019 15:00:00 15,3 1,4 11 6 E 1029,9 30
15.02.2019 14:00:00 13,9 1,7 14 8 E 1030,9 30
15.02.2019 13:00:00 11,9 0,9 18 10 E 1031,9 30
15.02.2019 12:00:00 10,0 1,0 11 6 E 1032,6 40
15.02.2019 11:00:00 7,7 -0,6 11 6 ESE 1032,8 40
15.02.2019 10:00:00 5,7 -2,1 11 6 SSE 1033,4 40
15.02.2019 09:00:00 2,8 -2,4 7 4 N 1033,8 40
15.02.2019 08:00:00 2,4 -2,8 7 4 SSE 1033,6 40
15.02.2019 07:00:00 3,1 -2,9 11 6 SSE 1033,1 40
15.02.2019 06:00:00 2,6 -3,1 7 4 SSE 1033,5 40
15.02.2019 05:00:00 2,7 -3,6 7 4 SSE 1033,5 40
15.02.2019 04:00:00 2,8 -3,5 7 4 SSE 1033,8 40
15.02.2019 03:00:00 4,1 -3,3 11 6 S 1034,2 40
15.02.2019 02:00:00 4,2 -2,8 11 6 S 1034,5 40
15.02.2019 01:00:00 4,2 -2,6 7 4 S 1034,4 40
15.02.2019 00:00:00 4,3 -2,1 7 4 S 1034,5 40
14.02.2019 23:00:00 3,1 -2,2 11 6 SSE 1034,5 40
14.02.2019 22:00:00 5,2 -1,8 11 6 S 1034,5 40
14.02.2019 21:00:00 6,3 -0,8 11 6 SSE 1034,7 40
14.02.2019 20:00:00 7,8 -3,2 7 4 SSE 1034,7 40
14.02.2019 19:00:00 8,7 -3,9 7 4 SE 1034,6 40
14.02.2019 18:00:00 9,4 -1,5 4 2 ESE 1034,4 30
14.02.2019 17:00:00 11,7 -2,2 11 6 E 1034,3 30
14.02.2019 16:00:00 11,6 -0,6 11 6 E 1034,7 30
14.02.2019 15:00:00 12,6 0,5 14 8 E 1034,9 30
14.02.2019 14:00:00 11,8 0,7 7 4 E 1035,3 30
14.02.2019 13:00:00 9,4 0,1 7 4 ESE 1036,4 25
14.02.2019 12:00:00 7,5 -2,9 11 6 SE 1036,9 25
14.02.2019 11:00:00 4,8 -2,3 11 6 SE 1037,4 25
14.02.2019 10:00:00 3,8 -3,9 7 4 SSE 1037,1 25
14.02.2019 09:00:00 -0,4 -3,4 11 6 SSE 1037,6 20
14.02.2019 08:00:00 -2,6 -4,5 7 4 SSE 1037,2 20
14.02.2019 07:00:00 -0,9 -3,6 7 4 SSE 1036,6 20
14.02.2019 06:00:00 -1,9 -3,5 4 2 SE 1036,7 20
14.02.2019 05:00:00 -1,6 -3,3 7 4 N 1036,4 20
14.02.2019 04:00:00 -1,1 -3,0 4 2 SE 1036,4 20
14.02.2019 03:00:00 -0,8 -2,8 7 4 SSE 1036,5 20
14.02.2019 02:00:00 -0,8 -2,8 7 4 S 1036,4 20
14.02.2019 01:00:00 -0,7 -2,2 11 6 S 1036,7 20
14.02.2019 00:00:00 0,1 -1,3 11 6 SSE 1036,4 20
13.02.2019 23:00:00 1,9 -0,8 4 2 S 1036,5 20
13.02.2019 22:00:00 2,2 0,0 11 6 S 1036,6 20
13.02.2019 21:00:00 1,4 -0,5 7 4 S 1036,9 20
13.02.2019 20:00:00 2,6 0,3 4 2 S 1036,9 30
13.02.2019 19:00:00 3,1 0,9 4 2 N 1036,7 30
13.02.2019 18:00:00 5,8 1,3 7 4 E 1036,6 30
13.02.2019 17:00:00 7,5 1,0 7 4 ESE 1036,1 30
13.02.2019 16:00:00 7,9 0,7 7 4 ESE 1036,1 30
13.02.2019 15:00:00 7,6 1,3 7 4 NE 1036,5 30
13.02.2019 14:00:00 7,7 0,6 7 4 E 1036,8 30
13.02.2019 13:00:00 7,7 0,4 7 4 N 1037,0 30
13.02.2019 12:00:00 7,0 -0,4 4 2 N 1037,4 30
13.02.2019 11:00:00 6,2 -0,4 7 4 S 1037,4 30
13.02.2019 10:00:00 3,3 -1,1 11 6 S 1037,8 25
13.02.2019 09:00:00 0,8 -2,0 7 4 N 1037,8 25
13.02.2019 08:00:00 0,2 -2,2 4 2 N 1037,4 25
13.02.2019 07:00:00 0,6 -1,8 7 4 SSW 1036,9 25
13.02.2019 06:00:00 0,4 -1,9 7 4 SSW 1036,7 20
13.02.2019 05:00:00 1,0 -1,5 7 4 SW 1036,7 20
13.02.2019 04:00:00 1,5 -1,5 11 6 SW 1037,0 20
13.02.2019 03:00:00 1,4 -1,5 7 4 SW 1037,5 20
13.02.2019 02:00:00 0,4 -1,4 7 4 SSW 1037,5 20
13.02.2019 01:00:00 1,3 -1,1 7 4 SSW 1037,1 20
13.02.2019 00:00:00 1,9 -0,7 4 2 N 1037,1 20
12.02.2019 23:00:00 2,1 -0,9 11 6 SW 1036,6 20
12.02.2019 22:00:00 3,0 -0,8 11 6 WSW 1036,3 20
12.02.2019 21:00:00 3,6 -0,3 11 6 WSW 1036,2 20
12.02.2019 20:00:00 4,1 -0,1 7 4 SW 1036,1 20
12.02.2019 19:00:00 5,0 0,1 7 4 WSW 1035,9 20
12.02.2019 18:00:00 5,4 0,5 7 4 WSW 1035,6 20

tt = Température de l'air
td = dewpoint
ff = Vitesse du vent
dd = Direction du vent
ppp = reduced air pressure
vv = visibility

stations d'obs. à proximité